Farmville, Virginia, United States (23901)
Lat: 37.30N, Lon: 78.39W
Wx Zone: VAZ060
Local Info
Past Weather Observations for Today

NOTE: This archive is for the closest National Weather Service station to Farmville. Information may differ from the station used for current weather conditions.

Click here for Long-term Archive

Time Weather Temperature Dewpoint Humidity Pressure Winds Precip Visibility
23:35
Partly Cloudy
73°F / 23°C 73°F / 23°C 100% 29.98 in
(1015 mb)
SSW 3.5 mph
(SSW 6 kph)
- 10SM
23:15
Clear
73°F / 23°C 73°F / 23°C 100% 29.95 in
(1014 mb)
Calm - 10SM
22:55
Clear
Thunder Storms
73°F / 23°C 72°F / 22°C 94% 29.95 in
(1014 mb)
Calm - 7SM
22:35
Clear
Fog And Mist
72°F / 22°C 72°F / 22°C 100% 29.95 in
(1014 mb)
Calm 0.01 in
(0.25 mm)
5SM
22:15
Partly Cloudy
Thunder Storms
72°F / 22°C 72°F / 22°C 100% 29.95 in
(1014 mb)
Calm 0.01 in
(0.25 mm)
10SM
21:55
Overcast
Rain
73°F / 23°C 72°F / 22°C 94% 29.95 in
(1014 mb)
Calm 0.01 in
(0.25 mm)
10SM
21:35
Overcast
Thunder Storms
77°F / 25°C 64°F / 18°C 65% 29.95 in
(1014 mb)
W 4.6 mph
(W 7 kph)
0.44 in
(11.18 mm)
1 1/2SM
21:15
Mostly Cloudy
Thunder Storms
82°F / 28°C 70°F / 21°C 66% 29.95 in
(1014 mb)
W 4.6 mph
(W 7 kph)
- 10SM
20:55
Mostly Cloudy
81°F / 27°C 70°F / 21°C 70% 29.95 in
(1014 mb)
Calm - 10SM
20:35
Partly Cloudy
81°F / 27°C 70°F / 21°C 70% 29.95 in
(1014 mb)
Calm - 10SM
20:15
Clear
79°F / 26°C 72°F / 22°C 79% 29.92 in
(1013 mb)
Calm - 10SM
19:55
Clear
81°F / 27°C 70°F / 21°C 70% 29.92 in
(1013 mb)
Calm - 10SM
19:35
Clear
82°F / 28°C 70°F / 21°C 66% 29.92 in
(1013 mb)
Calm - 10SM
19:15
Clear
82°F / 28°C 70°F / 21°C 66% 29.92 in
(1013 mb)
Calm - 10SM
18:55
Clear
82°F / 28°C 70°F / 21°C 66% 29.92 in
(1013 mb)
S 3.5 mph
(S 6 kph)
- 10SM
18:35
Clear
84°F / 29°C 70°F / 21°C 62% 29.92 in
(1013 mb)
S 4.6 mph
(S 7 kph)
- 10SM
18:15
Clear
86°F / 30°C 70°F / 21°C 59% 29.92 in
(1013 mb)
SSE 4.6 mph
(SSE 7 kph)
- 10SM
17:55
Clear
88°F / 31°C 68°F / 20°C 52% 29.89 in
(1012 mb)
SSE 4.6 mph
(SSE 7 kph)
- 10SM
17:35
Clear
90°F / 32°C 68°F / 20°C 49% 29.89 in
(1012 mb)
SW 6.9 mph
(SW 11 kph)
- 10SM
17:15
Clear
91°F / 33°C 68°F / 20°C 46% 29.89 in
(1012 mb)
SW 6.9 mph
(SW 11 kph)
- 10SM
16:55
Clear
91°F / 33°C 66°F / 19°C 44% 29.89 in
(1012 mb)
SSE 8.1 mph
(SSE 13 kph)
- 10SM
16:35
Clear
91°F / 33°C 66°F / 19°C 44% 29.92 in
(1013 mb)
SW 6.9 mph
(SW 11 kph)
- 10SM
16:15
Clear
93°F / 34°C 66°F / 19°C 41% 29.92 in
(1013 mb)
SSE 11.5 mph
(SSE 19 kph)
- 10SM
15:55
Partly Cloudy
93°F / 34°C 66°F / 19°C 41% 29.92 in
(1013 mb)
S 11.5 mph
(S 19 kph)
- 10SM
15:35
Partly Cloudy
95°F / 35°C 66°F / 19°C 39% 29.92 in
(1013 mb)
S 11.5 mph
(S 19 kph)
- 10SM
15:15
Clear
95°F / 35°C 63°F / 17°C 34% 29.92 in
(1013 mb)
SW 10.4 mph
(SW 17 kph)
- 10SM
14:55
Clear
97°F / 36°C 63°F / 17°C 32% 29.92 in
(1013 mb)
SW 10.4 mph
(SW 17 kph)
- 10SM
14:35
Clear
97°F / 36°C 63°F / 17°C 32% 29.95 in
(1014 mb)
SW 11.5 mph
(SW 19 kph)
- 10SM
14:15
Partly Cloudy
97°F / 36°C 63°F / 17°C 32% 29.95 in
(1014 mb)
SW 10.4 mph
(SW 17 kph)
- 10SM
13:55
Mostly Cloudy
97°F / 36°C 63°F / 17°C 32% 29.95 in
(1014 mb)
SW 10.4 mph
(SW 17 kph)
- 10SM
13:35
Partly Cloudy
95°F / 35°C 63°F / 17°C 34% 29.95 in
(1014 mb)
SW 10.4 mph
(SW 17 kph)
- 10SM
13:15
Clear
97°F / 36°C 63°F / 17°C 32% 29.98 in
(1015 mb)
SW 10.4 mph
(SW 17 kph)
- 10SM
12:55
Partly Cloudy
95°F / 35°C 61°F / 16°C 32% 29.98 in
(1015 mb)
SW 8.1 mph
(SW 13 kph)
- 10SM
12:35
Partly Cloudy
95°F / 35°C 64°F / 18°C 36% 29.98 in
(1015 mb)
W 5.8 mph
(W 9 kph)
- 10SM
12:15
Partly Cloudy
93°F / 34°C 64°F / 18°C 39% 29.98 in
(1015 mb)
SSW 4.6 mph
(SSW 7 kph)
- 10SM
11:55
Clear
93°F / 34°C 66°F / 19°C 41% 29.98 in
(1015 mb)
SW 6.9 mph
(SW 11 kph)
- 10SM
11:35
Clear
91°F / 33°C 66°F / 19°C 44% 29.98 in
(1015 mb)
Calm - 10SM
11:15
Clear
91°F / 33°C 66°F / 19°C 44% 30.01 in
(1016 mb)
SSW 5.8 mph
(SSW 9 kph)
- 10SM
10:55
Fair
90°F / 32°C 68°F / 20°C 49% 30.01 in
(1016 mb)
SSE 5.8 mph
(SSE 9 kph)
-
10:30
Clear
90°F / 32°C 68°F / 20°C 49% 30.01 in
(1016 mb)
S 5.8 mph
(S 9 kph)
- 10SM
10:15
Clear
90°F / 32°C 68°F / 20°C 49% 30.01 in
(1016 mb)
SSE 5.8 mph
(SSE 9 kph)
- 10SM
09:55
Clear
90°F / 32°C 68°F / 20°C 49% 30.04 in
(1017 mb)
SW 4.6 mph
(SW 7 kph)
- 10SM
09:35
Clear
88°F / 31°C 70°F / 21°C 55% 30.04 in
(1017 mb)
SW 4.6 mph
(SW 7 kph)
- 10SM
09:15
Fair
86°F / 30°C 70°F / 21°C 59% 30.04 in
(1017 mb)
SW 9.2 mph
(SW 15 kph)
- 10SM
08:55
Clear
84°F / 29°C 70°F / 21°C 62% 30.04 in
(1017 mb)
SW 5.8 mph
(SW 9 kph)
- 10SM
08:35
Clear
82°F / 28°C 70°F / 21°C 66% 30.04 in
(1017 mb)
SSW 5.8 mph
(SSW 9 kph)
- 10SM
08:15
Clear
81°F / 27°C 70°F / 21°C 70% 30.04 in
(1017 mb)
SW 5.8 mph
(SW 9 kph)
- 10SM
07:55
Clear
79°F / 26°C 72°F / 22°C 79% 30.04 in
(1017 mb)
SW 5.8 mph
(SW 9 kph)
- 10SM
07:35
Clear
77°F / 25°C 73°F / 23°C 89% 30.04 in
(1017 mb)
SW 4.6 mph
(SW 7 kph)
- 10SM
07:15
Clear
73°F / 23°C 73°F / 23°C 100% 30.04 in
(1017 mb)
SW 4.6 mph
(SW 7 kph)
- 10SM
06:55
Clear
72°F / 22°C 72°F / 22°C 100% 30.01 in
(1016 mb)
S 3.5 mph
(S 6 kph)
- 10SM
06:35
Clear
70°F / 21°C 70°F / 21°C 100% 30.04 in
(1017 mb)
Calm - 7SM
06:15
Clear
70°F / 21°C 68°F / 20°C 94% 30.01 in
(1016 mb)
Calm - 7SM
05:55
Clear
70°F / 21°C 70°F / 21°C 100% 30.01 in
(1016 mb)
SW 3.5 mph
(SW 6 kph)
- 10SM
05:35
Clear
70°F / 21°C 68°F / 20°C 94% 30.01 in
(1016 mb)
SW 3.5 mph
(SW 6 kph)
- 7SM
05:15
Clear
70°F / 21°C 68°F / 20°C 94% 30.01 in
(1016 mb)
Calm - 7SM
04:55
Clear
70°F / 21°C 68°F / 20°C 94% 30.01 in
(1016 mb)
Calm - 10SM
04:35
Clear
70°F / 21°C 68°F / 20°C 94% 30.01 in
(1016 mb)
S 3.5 mph
(S 6 kph)
- 10SM
04:15
Clear
70°F / 21°C 70°F / 21°C 100% 30.01 in
(1016 mb)
SW 3.5 mph
(SW 6 kph)
- 10SM
03:55
Clear
72°F / 22°C 70°F / 21°C 94% 30.01 in
(1016 mb)
SW 4.6 mph
(SW 7 kph)
- 10SM
03:35
Partly Cloudy
70°F / 21°C 68°F / 20°C 94% 29.98 in
(1015 mb)
SW 3.5 mph
(SW 6 kph)
- 10SM
03:15
Clear
72°F / 22°C 70°F / 21°C 94% 29.98 in
(1015 mb)
Calm - 10SM
02:55
Clear
72°F / 22°C 72°F / 22°C 100% 30.01 in
(1016 mb)
SSW 3.5 mph
(SSW 6 kph)
- 10SM
02:35
Clear
72°F / 22°C 72°F / 22°C 100% 30.01 in
(1016 mb)
SW 3.5 mph
(SW 6 kph)
- 10SM
02:15
Fair
N/A N/A N/A 30.01 in
(1016 mb)
Calm -
01:55
Fair
N/A N/A N/A N/A Calm -
01:35
Clear
72°F / 22°C 70°F / 21°C 94% 30.01 in
(1016 mb)
SW 3.5 mph
(SW 6 kph)
- 10SM
01:15
Clear
72°F / 22°C 72°F / 22°C 100% 30.01 in
(1016 mb)
Calm - 10SM
00:55
Clear
72°F / 22°C 72°F / 22°C 100% 30.01 in
(1016 mb)
Calm - 10SM
00:35
Clear
72°F / 22°C 72°F / 22°C 100% 30.01 in
(1016 mb)
SW 3.5 mph
(SW 6 kph)
- 10SM
00:15
Partly Cloudy
73°F / 23°C 72°F / 22°C 94% 30.01 in
(1016 mb)
Calm - 10SM
Time Weather Temperature Dewpoint Humidity Pressure Winds Precip Visibility


Weather for websites

WeatherForYou.com, LLC is not responsible for any damages or problems caused by this service. Current weather conditions are obtained from the closest station including government and personal stations which may have varying degrees of accuracy. Weather forecasts are derived from the NOAA NDFD. Like all things, this site belongs to Jesus Christ... He just trusts me to maintain it. If you have any questions or comments email webmaster@weatherforyou.com

Copyright © 2014, WeatherForYou.com LLC. All rights reserved.